This demonstration page uses our WeatherBlox Daily Observations layout. Learn more.

Left ArrowRight Arrow

Hourly Observations for April 16, 2022

Temp ( °F °C ) Dew Point ( °F °C ) Humidity (%) Winds ( mph kmh ) Pressure ( in mb ) Visibility ( mi km ) Precip ( " mm )
12:53 am 00:53 Cloudy with Light Rain 48 8.9 46 7.8 93 93 NW 3 6 29.83 1010 5 8 0.07 1.78
1:53 am 01:53 Cloudy with Light Rain 48 8.9 45 7.2 89 89 NW 3 6 29.80 1009 6 10 0.09 2.29
2:25 am 02:25 Cloudy with Rain 47 8.3 45 7.2 93 93 NNW 3 6 29.80 1009 4 6 0.04 1.02
2:53 am 02:53 Cloudy with Light Rain 48 8.9 45 7.2 89 89 NW 3 6 29.78 1009 8 13 0.06 1.52
3:53 am 03:53 Cloudy with Rain 47 8.3 45 7.2 93 93 Calm 29.77 1008 3 5 0.19 4.83
4:48 am 04:48 Cloudy with Light Rain 48 9 45 7 87 87 Calm 29.79 1009 5 8 0.08 2.03
4:53 am 04:53 Cloudy with Rain 48 8.9 45 7.2 89 89 Calm 29.77 1008 4 6 0.09 2.29
5:12 am 05:12 Cloudy with Light Rain 48 8.9 45 7.2 89 89 Calm 29.77 1008 5 8 0.03 0.76
5:53 am 05:53 Cloudy with Mist and Fog 48 8.9 46 7.8 93 93 NNE 5 7 29.75 1008 4 6 0.04 1.02
6:07 am 06:07 Cloudy 48 8.9 45 7.2 89 89 Calm 29.77 1008 7 11 0.00 0.00
6:16 am 06:16 Cloudy with Light Rain 48 8.9 46 7.8 93 93 NNW 7 11 29.77 1008 3 5 0.00 0.00
6:28 am 06:28 Cloudy with Light Rain 47 8.3 45 7.2 93 93 NW 8 13 29.78 1008 3 4 0.01 0.25
6:42 am 06:42 Cloudy with Light Rain 47 8.3 44 6.7 90 90 WNW 8 13 29.78 1008 3 4 0.02 0.51
6:53 am 06:53 Cloudy with Light Rain 47 8.3 44 6.7 90 90 WNW 6 9 29.77 1008 3 5 0.02 0.51
7:53 am 07:53 Cloudy with Rain 48 8.9 46 7.8 93 93 Calm 29.81 1010 3 5 0.03 0.76
8:01 am 08:01 Cloudy with Light Rain 48 8.9 45 7.2 89 89 NW 5 7 29.83 1010 3 4 0.01 0.25
8:30 am 08:30 Cloudy with Rain 48 8.9 45 7.2 89 89 Calm 29.85 1011 3 4 0.07 1.78
8:40 am 08:40 Cloudy with Light Rain 48 8.9 45 7.2 89 89 Calm 29.85 1011 4 6 0.09 2.29
8:53 am 08:53 Cloudy with Light Rain 48 8.9 45 7.2 89 89 Calm 29.83 1010 6 10 0.11 2.79
9:09 am 09:09 Cloudy with Light Rain 49 9.4 45 7.2 86 86 Calm 29.85 1011 8 13 0.01 0.25
9:25 am 09:25 Cloudy 49 9.4 46 7.8 90 90 W 5 7 29.87 1011 10 16 0.01 0.25
9:53 am 09:53 Cloudy 51 10.6 48 8.9 89 89 SSW 3 6 29.87 1012 10 16 0.01 0.25
10:02 am 10:02 Cloudy 51 10.6 48 8.9 89 89 SSW 3 6 29.89 1012 10 16 0.00 0.00
10:36 am 10:36 Mostly Cloudy 54 12.2 50 10 87 87 S 7 11 29.90 1013 10 16 0.00 0.00
10:53 am 10:53 Mostly Cloudy 55 12.8 51 10.6 87 87 S 7 11 29.90 1013 10 16 0.00 0.00
11:11 am 11:11 Mostly Cloudy 57 13.9 50 10 78 78 WSW 5 7 29.92 1013 10 16 0.00 0.00
11:26 am 11:26 Mostly Cloudy 56 13.3 49 9.4 77 77 VRB 3 6 29.93 1014 10 16 0.00 0.00
11:50 am 11:50 Mostly Cloudy 57 14 50 10 77 77 Calm 29.94 1014 10 16 0.00 0.00
11:53 am 11:53 Mostly Cloudy 59 15 51 10.6 75 75 VRB 3 6 29.94 1014 10 16 0.00 0.00
12:04 pm 12:04 Mostly Cloudy 59 15 51 10.6 75 75 SE 6 9 29.95 1014 10 16 0.00 0.00
12:12 pm 12:12 Mostly Cloudy 60 15.6 50 10 70 70 Calm 29.95 1014 10 16 0.00 0.00
12:19 pm 12:19 Partly Cloudy 61 16.1 50 10 67 67 E 3 6 29.95 1014 10 16 0.00 0.00
12:53 pm 12:53 Mostly Sunny 65 18.3 35 1.7 33 33 SW 10 17 29.94 1014 10 16 0.00 0.00
1:53 pm 13:53 Sunny 66 18.9 29 -1.7 25 25 SW 12 19 29.94 1014 10 16 0.00 0.00
2:53 pm 14:53 Sunny 67 19.4 30 -1.1 25 25 SW 7 11 29.96 1015 10 16 0.00 0.00
3:53 pm 15:53 Sunny 67 19.4 32 0 27 27 VRB 7 11 29.98 1015 10 16 0.00 0.00
4:53 pm 16:53 Sunny 68 20 30 -1.1 24 24 W 9 15 29.98 1015 10 16 0.00 0.00
5:53 pm 17:53 Sunny 67 19.4 25 -3.9 20 20 WNW 9 15 30.00 1016 10 16 0.00 0.00
6:53 pm 18:53 Sunny 64 17.8 24 -4.4 22 22 NW 9 15 30.01 1016 10 16 0.00 0.00
7:53 pm 19:53 Clear 61 16.1 26 -3.3 26 26 NW 7 11 30.03 1017 10 16 0.00 0.00
8:53 pm 20:53 Clear 59 15 27 -2.8 29 29 Calm 30.06 1018 10 16 0.00 0.00
9:53 pm 21:53 Clear 54 12.2 33 0.6 45 45 Calm 30.08 1019 10 16 0.00 0.00
10:53 pm 22:53 Clear 51 10.6 34 1.1 52 52 Calm 30.09 1019 10 16 0.00 0.00
11:53 pm 23:53 Clear 52 11.1 35 1.7 53 53 N 3 6 30.11 1020 10 16 0.00 0.00

Powered by AerisWeather